Change the Weather History Date:

Tuesday, December 4, 2012

  Actual Average Record
Temperature  
Mean Temperature 18 °F -  
Max Temperature 23 °F 26 °F 56 °F (1941)
Min Temperature 14 °F 7 °F -22 °F (1991)
Degree Days  
Heating Degree Days 46    
Moisture  
Dew Point 13 °F    
Average Humidity 80    
Maximum Humidity 93    
Minimum Humidity 68    
Precipitation  
Precipitation 0.00 in - - ()
Sea Level Pressure  
Sea Level Pressure 30.19 in    
Wind  
Wind Speed 13 mph (NW)    
Max Wind Speed 22 mph    
Max Gust Speed 28 mph    
Visibility 10 miles    
Events      
Averages and records for this station are not official NWS values.
T = Trace of Precipitation, MM = Missing Value Source: NWS Daily Summary

Daily Weather History Graph

Daily Weather History Graph

Search for Another Location

Airport or City:

Trip Planner

Search our weather history database for the weather conditions in past years. The results will help you decide how hot, cold, wet, or windy it might be!

Date:

Astronomy

Dec. 04, 2012 Rise Set
Actual Time 7:52 AM CST 4:35 PM CST
Civil Twilight 7:17 AM CST 5:10 PM CST
Nautical Twilight 6:39 AM CST 5:48 PM CST
Astronomical Twilight 6:02 AM CST 6:25 PM CST
Moon 10:39 PM CST (12/4) 11:33 AM CST (12/4)
Length of Visible Light 9h 53m
Length of Day
8h 43m
Waning Gibbous, 69% of the Moon is Illuminated
Dec 4
Waning Gibbous
Dec 6
Last Quarter
Dec 13
New
Dec 19
First Quarter
Dec 28
Full

Hourly Weather History & Observations

Time (CST) Temp. Windchill Dew Point Humidity Pressure Visibility Wind Dir Wind Speed Gust Speed Precip Events Conditions
12:12 AM 23.0 °F 9.6 °F 17.6 °F 80% 29.92 in 10.0 mi WNW 16.1 mph 23.0 mph N/A   Clear
12:33 AM 21.2 °F 5.2 °F 15.8 °F 80% 29.91 in 10.0 mi WNW 21.9 mph 27.6 mph N/A   Clear
12:53 AM 21.2 °F 6.4 °F 15.8 °F 80% 29.93 in 10.0 mi NW 18.4 mph 23.0 mph N/A   Clear
1:12 AM 21.2 °F 6.8 °F 15.8 °F 80% 29.93 in 10.0 mi WNW 17.3 mph 24.2 mph N/A   Clear
1:33 AM 21.2 °F 6.4 °F 15.8 °F 80% 29.94 in 10.0 mi WNW 18.4 mph 23.0 mph N/A   Clear
1:53 AM 21.2 °F 10.1 °F 15.8 °F 80% 29.96 in 10.0 mi NW 10.4 mph - N/A   Clear
2:12 AM 21.2 °F 7.8 °F 14.0 °F 74% 29.96 in 10.0 mi WNW 15.0 mph - N/A   Clear
2:53 AM 19.4 °F 4.5 °F 15.8 °F 86% 29.99 in 10.0 mi WNW 17.3 mph - N/A   Clear
3:13 AM 19.4 °F 4.5 °F 15.8 °F 86% 30.00 in 10.0 mi NW 17.3 mph 21.9 mph N/A   Clear
3:33 AM 19.4 °F 5.5 °F 14.0 °F 80% 30.00 in 10.0 mi NW 15.0 mph 19.6 mph N/A   Clear
3:53 AM 17.6 °F 3.7 °F 14.0 °F 86% 30.01 in 10.0 mi NW 13.8 mph - N/A   Clear
4:12 AM 17.6 °F 4.3 °F 14.0 °F 86% 30.01 in 10.0 mi NW 12.7 mph - N/A   Scattered Clouds
4:33 AM 17.6 °F 2.7 °F 12.2 °F 79% 30.02 in 10.0 mi NW 16.1 mph 21.9 mph N/A   Scattered Clouds
4:53 AM 17.6 °F 4.3 °F 10.4 °F 73% 30.04 in 10.0 mi NW 12.7 mph 24.2 mph N/A   Clear
5:13 AM 15.8 °F 2.7 °F 12.2 °F 86% 30.04 in 10.0 mi NW 11.5 mph - N/A   Clear
5:33 AM 15.8 °F 2.7 °F 12.2 °F 86% 30.05 in 10.0 mi NW 11.5 mph 21.9 mph N/A   Clear
5:53 AM 15.8 °F -1.1 °F 10.4 °F 79% 30.05 in 10.0 mi NW 19.6 mph 23.0 mph N/A   Mostly Cloudy
6:13 AM 15.8 °F -0.2 °F 10.4 °F 79% 30.07 in 10.0 mi NW 17.3 mph 23.0 mph N/A   Overcast
6:33 AM 15.8 °F 0.3 °F 10.4 °F 79% 30.08 in 10.0 mi NW 16.1 mph 23.0 mph N/A   Overcast
6:53 AM 17.6 °F 3.7 °F 10.4 °F 73% 30.09 in 10.0 mi NW 13.8 mph 20.7 mph N/A   Mostly Cloudy
7:12 AM 15.8 °F 2.1 °F 10.4 °F 79% 30.10 in 10.0 mi NW 12.7 mph - N/A   Mostly Cloudy
7:33 AM 15.8 °F 3.4 °F 10.4 °F 79% 30.12 in 10.0 mi NW 10.4 mph - N/A   Clear
7:52 AM 14.0 °F -0.8 °F 10.4 °F 86% 30.13 in 10.0 mi NW 13.8 mph 17.3 mph N/A   Clear
8:13 AM 15.8 °F 3.4 °F 10.4 °F 79% 30.14 in 10.0 mi NW 10.4 mph - N/A   Clear
8:33 AM 15.8 °F 3.4 °F 12.2 °F 86% 30.16 in 10.0 mi NW 10.4 mph - N/A   Clear
8:52 AM 15.8 °F 1.4 °F 12.2 °F 86% 30.16 in 10.0 mi NW 13.8 mph - N/A   Clear
9:13 AM 17.6 °F 2.7 °F 10.4 °F 73% 30.17 in 10.0 mi NW 16.1 mph 21.9 mph N/A   Clear
9:32 AM 17.6 °F 2.2 °F 10.4 °F 73% 30.18 in 10.0 mi NNW 17.3 mph - N/A   Clear
9:53 AM 17.6 °F 3.2 °F 10.4 °F 73% 30.19 in 10.0 mi NNW 15.0 mph 20.7 mph N/A   Clear
10:13 AM 17.6 °F 2.7 °F 10.4 °F 73% 30.21 in 10.0 mi NNW 16.1 mph - N/A   Clear
10:33 AM 17.6 °F 2.2 °F 10.4 °F 73% 30.22 in 10.0 mi NW 17.3 mph 21.9 mph N/A   Scattered Clouds
10:52 AM 19.4 °F 6.6 °F 12.2 °F 74% 30.23 in 10.0 mi NNW 12.7 mph - N/A   Scattered Clouds
11:13 AM 19.4 °F 6.6 °F 12.2 °F 74% 30.23 in 10.0 mi NNW 12.7 mph 16.1 mph N/A   Scattered Clouds
11:33 AM 19.4 °F 5.0 °F 12.2 °F 74% 30.24 in 10.0 mi NW 16.1 mph 21.9 mph N/A   Scattered Clouds
12:13 PM 21.2 °F 9.5 °F 12.2 °F 68% 30.24 in 10.0 mi NW 11.5 mph 18.4 mph N/A   Scattered Clouds
12:33 PM 21.2 °F 9.5 °F 12.2 °F 68% 30.24 in 10.0 mi NNW 11.5 mph 18.4 mph N/A   Scattered Clouds
12:52 PM 21.2 °F 10.1 °F 12.2 °F 68% 30.25 in 10.0 mi NW 10.4 mph 19.6 mph N/A   Clear
1:13 PM 21.2 °F 8.9 °F 14.0 °F 74% 30.24 in 10.0 mi NNW 12.7 mph 18.4 mph N/A   Clear
1:33 PM 21.2 °F 9.5 °F 12.2 °F 68% 30.24 in 10.0 mi NNW 11.5 mph 19.6 mph N/A   Clear
1:52 PM 21.2 °F 9.5 °F 14.0 °F 74% 30.24 in 10.0 mi NNW 11.5 mph - N/A   Clear
2:13 PM 21.2 °F 8.9 °F 12.2 °F 68% 30.24 in 10.0 mi North 12.7 mph - N/A   Clear
2:33 PM 21.2 °F 9.5 °F 14.0 °F 74% 30.25 in 10.0 mi NNW 11.5 mph 16.1 mph N/A   Clear
2:52 PM 21.2 °F 10.1 °F 14.0 °F 74% 30.26 in 10.0 mi NNW 10.4 mph - N/A   Clear
3:13 PM 21.2 °F 10.9 °F 14.0 °F 74% 30.28 in 10.0 mi NW 9.2 mph - N/A   Clear
3:33 PM 21.2 °F 10.9 °F 14.0 °F 74% 30.28 in 10.0 mi NNW 9.2 mph - N/A   Clear
3:52 PM 21.2 °F 10.1 °F 14.0 °F 74% 30.29 in 10.0 mi NW 10.4 mph - N/A   Clear
4:13 PM 21.2 °F 12.6 °F 14.0 °F 74% 30.30 in 10.0 mi NW 6.9 mph - N/A   Clear
4:33 PM 19.4 °F 10.4 °F 14.0 °F 80% 30.30 in 10.0 mi NW 6.9 mph - N/A   Clear
4:52 PM 19.4 °F 11.5 °F 14.0 °F 80% 30.30 in 10.0 mi NNW 5.8 mph - N/A   Clear
5:13 PM 17.6 °F 9.3 °F 14.0 °F 86% 30.31 in 10.0 mi NNW 5.8 mph - N/A   Clear
5:33 PM 17.6 °F 8.2 °F 14.0 °F 86% 30.31 in 10.0 mi NNW 6.9 mph - N/A   Clear
5:52 PM 17.6 °F 8.2 °F 14.0 °F 86% 30.31 in 10.0 mi North 6.9 mph - N/A   Clear
6:13 PM 17.6 °F 12.3 °F 14.0 °F 86% 30.30 in 10.0 mi North 3.5 mph - N/A   Clear
6:33 PM 17.6 °F - 14.0 °F 86% 30.29 in 10.0 mi Calm Calm - N/A   Clear
6:52 PM 17.6 °F 12.3 °F 12.2 °F 79% 30.30 in 10.0 mi North 3.5 mph - N/A   Clear
7:13 PM 15.8 °F - 12.2 °F 86% 30.31 in 10.0 mi Calm Calm - N/A   Clear
7:33 PM 15.8 °F - 12.2 °F 86% 30.33 in 10.0 mi Calm Calm - N/A   Clear
7:52 PM 15.8 °F 10.2 °F 12.2 °F 86% 30.33 in 10.0 mi NNW 3.5 mph - N/A   Clear
8:13 PM 15.8 °F - 12.2 °F 86% 30.33 in 10.0 mi Calm Calm - N/A   Clear
8:33 PM 15.8 °F - 12.2 °F 86% 30.33 in 10.0 mi Calm Calm - N/A   Clear
8:52 PM 15.8 °F - 12.2 °F 86% 30.35 in 10.0 mi Calm Calm - N/A   Clear
9:13 PM 14.0 °F - 12.2 °F 93% 30.34 in 10.0 mi Calm Calm - N/A   Clear
9:32 PM 15.8 °F - 12.2 °F 86% 30.35 in 10.0 mi Calm Calm - N/A   Clear
9:53 PM 15.8 °F - 14.0 °F 93% 30.35 in 10.0 mi Calm Calm - N/A   Clear
10:13 PM 15.8 °F - 12.2 °F 86% 30.36 in 10.0 mi Calm Calm - N/A   Clear
10:32 PM 14.0 °F - 12.2 °F 93% 30.36 in 10.0 mi Calm Calm - N/A   Clear
10:52 PM 14.0 °F - 12.2 °F 93% 30.35 in 10.0 mi Calm Calm - N/A   Clear
11:13 PM 14.0 °F 8.2 °F 12.2 °F 93% 30.35 in 10.0 mi ESE 3.5 mph - N/A   Clear
11:32 PM 14.0 °F 6.5 °F 12.2 °F 93% 30.34 in 10.0 mi ESE 4.6 mph - N/A   Clear
11:52 PM 14.0 °F 8.2 °F 12.2 °F 93% 30.34 in 10.0 mi East 3.5 mph - N/A   Clear